Precipitable_Water
0.97 0.98 1.02 1.06 1.05 1.07 1.03 1.03 1.09 1.05 0.88 0.87 0.93 1.00 1.01 1.05 1.08 1.08 0.99 0.90 0.85 0.76 0.70 0.63 0.56 0.53 0.48 0.33 0.29 0.42 0.44 0.41 0.41 0.41 0.35 0.29 0.25 0.23 0.19 0.20 0.22 0.20 0.23 0.25 0.26 0.23 0.20
0.96 0.93 0.94 0.92 0.90 0.88 0.91 1.02 1.02 0.99 0.96 0.82 0.87 0.94 0.97 0.97 0.98 0.92 0.85 0.81 0.76 0.68 0.60 0.56 0.54 0.54 0.41 0.26 0.44 0.44 0.41 0.38 0.36 0.37 0.32 0.30 0.26 0.26 0.21 0.20 0.19 0.23 0.23 0.21 0.21 0.18 0.18
0.88 0.91 0.91 0.93 0.91 0.85 0.84 0.89 0.93 0.92 0.90 0.87 0.85 0.87 0.94 0.97 0.92 0.92 0.78 0.70 0.70 0.60 0.55 0.54 0.52 0.50 0.39 0.34 0.47 0.45 0.39 0.36 0.36 0.35 0.28 0.31 0.30 0.24 0.23 0.19 0.24 0.22 0.16 0.17 0.18 0.19 0.19
0.77 0.85 0.89 0.95 0.96 0.87 0.82 0.78 0.79 0.82 0.88 0.92 0.87 0.88 0.96 0.90 0.81 0.72 0.70 0.67 0.63 0.57 0.52 0.50 0.51 0.42 0.33 0.48 0.48 0.41 0.39 0.33 0.34 0.34 0.31 0.33 0.30 0.24 0.21 0.22 0.19 0.16 0.15 0.11 0.19 0.23 0.25
0.76 0.74 0.79 0.83 0.84 0.83 0.79 0.77 0.77 0.75 0.77 0.78 0.80 0.82 0.74 0.68 0.67 0.64 0.63 0.62 0.55 0.52 0.53 0.54 0.45 0.36 0.28 0.47 0.36 0.41 0.39 0.30 0.31 0.31 0.31 0.32 0.28 0.24 0.24 0.16 0.14 0.15 0.11 0.15 0.18 0.26 0.25
0.65 0.71 0.73 0.72 0.70 0.73 0.76 0.77 0.75 0.72 0.69 0.68 0.69 0.66 0.63 0.60 0.60 0.60 0.59 0.60 0.61 0.59 0.58 0.53 0.47 0.30 0.36 0.32 0.39 0.39 0.40 0.35 0.28 0.28 0.25 0.28 0.26 0.19 0.20 0.16 0.09 0.13 0.14 0.17 0.16 0.23 0.23
0.59 0.60 0.65 0.68 0.70 0.71 0.73 0.74 0.74 0.71 0.69 0.66 0.63 0.62 0.64 0.61 0.60 0.62 0.59 0.57 0.46 0.42 0.48 0.38 0.36 0.34 0.37 0.43 0.45 0.37 0.41 0.34 0.31 0.25 0.17 0.26 0.17 0.14 0.18 0.21 0.21 0.21 0.19 0.16 0.17 0.25 0.22
0.56 0.60 0.60 0.64 0.63 0.65 0.67 0.68 0.70 0.72 0.71 0.69 0.65 0.64 0.65 0.65 0.64 0.64 0.67 0.52 0.51 0.52 0.36 0.45 0.44 0.43 0.46 0.45 0.28 0.34 0.43 0.27 0.24 0.19 0.25 0.20 0.16 0.24 0.26 0.24 0.21 0.19 0.16 0.15 0.20 0.27 0.23
0.76 0.66 0.64 0.65 0.66 0.65 0.61 0.62 0.65 0.66 0.68 0.70 0.70 0.70 0.64 0.66 0.66 0.62 0.55 0.54 0.66 0.59 0.34 0.37 0.42 0.40 0.41 0.41 0.31 0.32 0.40 0.34 0.27 0.24 0.25 0.18 0.23 0.28 0.25 0.21 0.19 0.20 0.17 0.18 0.19 0.23 0.22
1.01 0.95 0.81 0.73 0.69 0.64 0.62 0.57 0.57 0.57 0.59 0.63 0.66 0.66 0.63 0.61 0.52 0.55 0.44 0.58 0.63 0.62 0.27 0.30 0.34 0.38 0.44 0.44 0.30 0.45 0.48 0.37 0.32 0.26 0.28 0.24 0.29 0.26 0.24 0.22 0.21 0.15 0.26 0.25 0.20 0.16 0.11
0.85 0.86 0.86 0.79 0.73 0.71 0.64 0.54 0.54 0.51 0.50 0.52 0.56 0.61 0.63 0.63 0.48 0.45 0.50 0.62 0.58 0.56 0.19 0.32 0.36 0.53 0.47 0.38 0.37 0.36 0.51 0.39 0.28 0.28 0.27 0.23 0.24 0.23 0.21 0.23 0.25 0.21 0.28 0.22 0.22 0.18 0.18
0.77 0.80 0.85 0.88 0.83 0.75 0.69 0.64 0.49 0.49 0.47 0.47 0.48 0.52 0.54 0.53 0.52 0.53 0.59 0.56 0.51 0.22 0.16 0.26 0.36 0.34 0.32 0.34 0.34 0.36 0.33 0.39 0.38 0.27 0.27 0.25 0.33 0.29 0.27 0.30 0.28 0.29 0.24 0.23 0.24 0.22 0.08
0.78 0.78 0.80 0.79 0.83 0.85 0.80 0.69 0.62 0.43 0.42 0.43 0.44 0.46 0.46 0.51 0.37 0.56 0.55 0.43 0.18 0.15 0.25 0.21 0.23 0.29 0.26 0.24 0.24 0.26 0.23 0.21 0.20 0.14 0.14 0.22 0.24 0.31 0.32 0.24 0.31 0.27 0.17 0.09 0.08 0.08 0.06
0.76 0.75 0.76 0.76 0.72 0.73 0.78 0.80 0.73 0.58 0.38 0.38 0.40 0.47 0.46 0.47 0.52 0.51 0.42 0.20 0.12 0.20 0.22 0.29 0.27 0.27 0.22 0.25 0.23 0.25 0.23 0.19 0.24 0.25 0.20 0.17 0.15 0.27 0.33 0.26 0.22 0.21 0.16 0.08 0.05 0.05 0.06
0.75 0.75 0.73 0.73 0.72 0.68 0.66 0.72 0.74 0.73 0.56 0.37 0.39 0.39 0.35 0.39 0.49 0.48 0.30 0.12 0.13 0.18 0.23 0.22 0.25 0.21 0.20 0.25 0.25 0.26 0.25 0.24 0.26 0.23 0.15 0.14 0.14 0.29 0.28 0.29 0.26 0.21 0.14 0.19 0.08 0.12 0.08
0.69 0.70 0.69 0.67 0.67 0.66 0.61 0.64 0.69 0.70 0.60 0.52 0.34 0.30 0.26 0.39 0.47 0.40 0.18 0.15 0.18 0.27 0.28 0.26 0.17 0.22 0.17 0.18 0.19 0.19 0.19 0.25 0.21 0.22 0.23 0.16 0.08 0.20 0.25 0.27 0.26 0.21 0.23 0.10 0.12 0.05 0.05
0.66 0.67 0.65 0.64 0.64 0.64 0.62 0.64 0.66 0.69 0.63 0.60 0.47 0.28 0.30 0.42 0.46 0.23 0.14 0.17 0.21 0.30 0.32 0.25 0.20 0.19 0.19 0.18 0.18 0.15 0.17 0.22 0.24 0.20 0.22 0.17 0.11 0.12 0.20 0.14 0.11 0.15 0.14 0.15 0.14 0.12 0.07
0.63 0.65 0.65 0.64 0.61 0.60 0.61 0.60 0.68 0.68 0.66 0.59 0.47 0.32 0.54 0.52 0.16 0.21 0.17 0.21 0.25 0.24 0.28 0.25 0.25 0.21 0.18 0.18 0.15 0.14 0.13 0.17 0.25 0.23 0.15 0.19 0.13 0.07 0.10 0.22 0.26 0.24 0.16 0.15 0.10 0.09 0.13
0.61 0.63 0.65 0.66 0.64 0.60 0.59 0.59 0.65 0.68 0.69 0.53 0.47 0.48 0.60 0.50 0.20 0.14 0.21 0.21 0.25 0.22 0.21 0.20 0.18 0.20 0.20 0.15 0.11 0.13 0.14 0.21 0.24 0.20 0.16 0.18 0.10 0.06 0.08 0.16 0.22 0.18 0.20 0.21 0.19 0.18 0.12
0.57 0.58 0.64 0.66 0.67 0.64 0.60 0.59 0.61 0.67 0.70 0.61 0.49 0.38 0.48 0.46 0.44 0.34 0.22 0.17 0.16 0.25 0.21 0.21 0.18 0.19 0.15 0.13 0.14 0.11 0.12 0.17 0.21 0.21 0.23 0.20 0.11 0.08 0.05 0.08 0.13 0.11 0.13 0.15 0.17 0.12 0.11
0.56 0.57 0.58 0.65 0.69 0.67 0.67 0.64 0.63 0.66 0.69 0.62 0.49 0.44 0.47 0.36 0.41 0.39 0.38 0.32 0.20 0.15 0.21 0.21 0.16 0.16 0.13 0.10 0.11 0.10 0.14 0.17 0.21 0.23 0.23 0.20 0.11 0.15 0.16 0.19 0.20 0.20 0.20 0.21 0.19 0.19 0.15
0.56 0.56 0.57 0.61 0.66 0.69 0.71 0.73 0.66 0.66 0.68 0.55 0.46 0.47 0.53 0.46 0.45 0.40 0.39 0.36 0.36 0.34 0.28 0.21 0.17 0.18 0.18 0.13 0.13 0.13 0.17 0.19 0.21 0.30 0.28 0.32 0.22 0.26 0.24 0.30 0.29 0.25 0.27 0.28 0.28 0.29 0.30
0.54 0.53 0.55 0.59 0.67 0.73 0.74 0.79 0.78 0.73 0.72 0.59 0.63 0.64 0.57 0.53 0.49 0.44 0.39 0.36 0.39 0.42 0.45 0.46 0.42 0.38 0.33 0.32 0.38 0.40 0.41 0.39 0.38 0.36 0.34 0.33 0.30 0.27 0.21 0.29 0.29 0.22 0.27 0.30 0.33 0.35 0.33
0.65 0.56 0.53 0.61 0.66 0.72 0.79 0.79 0.80 0.80 0.77 0.69 0.67 0.63 0.50 0.45 0.50 0.50 0.50 0.48 0.42 0.41 0.39 0.47 0.54 0.52 0.58 0.66 0.62 0.56 0.54 0.51 0.48 0.46 0.47 0.40 0.39 0.37 0.31 0.35 0.24 0.35 0.41 0.41 0.40 0.41 0.42
0.72 0.72 0.61 0.60 0.69 0.71 0.75 0.82 0.84 0.84 0.82 0.75 0.74 0.63 0.53 0.44 0.52 0.52 0.54 0.53 0.53 0.54 0.48 0.45 0.46 0.49 0.56 0.52 0.44 0.42 0.45 0.46 0.48 0.52 0.52 0.52 0.47 0.41 0.37 0.36 0.39 0.42 0.42 0.41 0.39 0.38 0.44
0.76 0.78 0.75 0.67 0.69 0.74 0.76 0.79 0.85 0.85 0.84 0.80 0.74 0.75 0.62 0.48 0.47 0.56 0.52 0.54 0.51 0.53 0.53 0.55 0.62 0.65 0.59 0.48 0.42 0.32 0.29 0.35 0.35 0.40 0.49 0.49 0.48 0.41 0.39 0.33 0.28 0.37 0.40 0.44 0.42 0.32 0.43
0.94 0.88 0.86 0.82 0.76 0.78 0.82 0.84 0.86 0.89 0.87 0.82 0.76 0.78 0.64 0.50 0.57 0.56 0.49 0.50 0.57 0.53 0.50 0.55 0.57 0.57 0.61 0.49 0.42 0.39 0.38 0.45 0.36 0.35 0.37 0.39 0.41 0.36 0.35 0.32 0.33 0.39 0.40 0.41 0.27 0.29 0.41
1.01 1.01 0.98 0.94 0.91 0.85 0.86 0.87 0.89 0.90 0.90 0.83 0.78 0.84 0.69 0.57 0.58 0.63 0.61 0.55 0.54 0.53 0.45 0.52 0.51 0.54 0.52 0.44 0.43 0.42 0.40 0.42 0.40 0.41 0.38 0.36 0.35 0.35 0.36 0.31 0.27 0.43 0.40 0.34 0.39 0.43 0.43
1.00 1.01 1.01 0.99 0.99 0.96 0.91 0.89 0.92 0.95 0.94 0.90 0.72 0.87 0.84 0.64 0.60 0.72 0.71 0.71 0.66 0.63 0.55 0.55 0.51 0.51 0.52 0.45 0.45 0.45 0.40 0.43 0.39 0.32 0.43 0.33 0.37 0.34 0.35 0.33 0.43 0.45 0.44 0.47 0.48 0.46 0.47
Wind_Speed
38 37 34 30 30 28 27 24 21 18 15 15 14 14 15 16 17 15 13 13 18 25 30 32 31 29 30 28 26 26 24 24 24 23 21 20 18 16 16 14 13 12 12 11 11 11 12
39 37 35 34 33 32 30 28 25 24 19 17 18 16 16 16 15 16 14 14 21 25 28 28 27 28 28 26 25 24 23 24 23 22 21 18 18 16 15 14 13 12 12 11 11 12 12
37 36 35 34 34 34 33 30 27 24 21 19 18 17 16 19 17 15 15 20 21 24 24 25 25 27 26 25 24 22 22 22 22 22 20 18 17 15 14 13 13 12 11 11 12 12 13
35 34 33 33 33 34 35 33 31 28 24 22 22 22 20 18 17 19 20 22 20 22 23 23 23 24 24 23 23 22 21 20 20 20 19 17 15 14 12 13 11 11 11 11 12 12 13
33 32 31 30 31 32 33 33 31 31 28 24 22 21 21 20 19 19 20 20 20 21 21 21 22 23 22 22 22 20 20 19 19 18 17 16 14 13 12 11 10 10 12 12 12 12 14
31 30 29 28 28 28 29 30 30 30 29 27 25 24 23 22 21 20 20 20 20 20 20 21 21 20 20 20 20 19 19 18 18 17 15 13 12 12 11 11 13 12 12 13 14 14 17
29 29 28 26 26 25 26 26 26 26 26 25 24 24 23 22 20 18 18 18 18 17 18 18 19 20 20 18 18 17 17 16 16 14 14 12 11 12 12 11 11 11 12 14 15 15 18
28 29 27 26 24 23 23 23 23 23 23 22 20 18 17 16 16 18 17 16 17 18 19 18 18 18 17 17 16 14 14 14 14 13 12 11 12 12 12 11 11 11 12 15 16 15 18
28 28 28 27 25 23 21 20 20 19 19 19 18 18 17 17 18 18 19 19 17 17 17 16 15 15 14 14 14 12 12 13 12 11 11 12 12 12 11 10 11 12 13 14 15 18 16
28 28 28 28 27 24 21 19 18 17 16 16 15 14 14 14 16 16 16 15 14 14 14 9 11 11 12 13 11 12 11 12 10 12 11 10 11 11 11 11 12 12 12 13 15 14 15
29 29 28 28 28 27 24 20 17 15 14 13 13 12 12 12 13 12 12 11 10 11 11 8 9 11 10 11 12 9 10 9 11 11 11 12 11 11 11 11 11 12 12 14 14 14 14
27 28 28 29 28 28 27 24 19 15 13 12 12 11 9 9 9 9 8 8 8 7 6 7 8 9 10 8 9 9 9 8 10 9 8 10 10 10 11 11 11 12 12 13 13 12 12
23 25 27 27 29 28 27 25 22 17 14 11 10 9 8 7 7 6 6 6 6 7 8 7 8 8 8 7 7 8 7 7 8 7 9 9 10 11 11 11 12 11 10 12 11 10 11
20 22 24 25 26 27 28 27 23 18 14 12 10 9 7 5 4 4 4 5 7 7 6 8 7 7 7 6 6 6 7 7 6 7 8 9 11 11 11 12 12 11 10 9 11 9 12
18 20 21 23 24 25 26 26 25 20 14 10 9 10 8 5 3 2 2 3 5 5 5 7 7 6 5 6 6 6 6 7 7 7 8 8 9 9 9 9 9 9 9 9 8 10 9
16 18 19 21 22 23 24 24 24 22 15 11 7 7 9 6 4 2 2 3 3 4 4 6 5 6 6 6 6 6 7 7 8 8 8 9 8 9 9 9 10 10 9 8 8 6 9
15 16 18 20 21 22 23 23 23 21 16 12 8 7 8 6 5 4 3 3 3 4 4 4 5 5 5 6 6 6 6 7 7 7 7 7 7 9 8 9 9 8 9 8 7 8 8
14 16 17 19 20 21 22 22 21 21 17 11 9 7 8 5 4 4 3 2 3 4 3 3 4 4 5 6 6 7 8 8 6 7 7 7 7 8 9 9 9 10 10 9 8 10 11
14 15 17 18 20 20 21 21 21 20 18 11 8 6 7 4 2 2 2 3 2 3 3 3 4 4 5 5 5 6 6 7 7 6 7 7 7 7 8 8 9 11 12 11 10 11 13
14 15 17 18 19 20 20 21 20 20 17 12 9 7 6 5 2 1 1 1 1 2 2 3 4 4 4 5 5 6 6 6 6 7 8 8 9 11 11 12 11 12 13 14 14 13 15
15 16 17 17 18 19 19 20 20 19 16 12 11 8 6 5 5 2 3 4 4 4 5 5 5 6 6 6 7 8 8 8 9 10 10 10 12 12 15 17 16 18 19 19 19 20 19
17 17 17 17 18 18 18 18 19 19 15 12 10 10 8 6 6 5 6 6 6 7 7 8 8 8 9 10 10 11 10 11 12 12 12 13 14 13 17 17 18 20 23 23 25 25 26
18 18 18 18 17 17 16 16 17 18 15 12 12 11 9 8 7 6 7 8 8 9 10 10 11 11 12 13 13 14 14 14 15 14 15 14 14 14 17 16 19 21 20 18 18 19 21
20 20 19 19 18 17 17 16 16 16 15 12 12 12 11 9 7 7 7 7 8 9 10 12 12 12 13 14 15 16 17 18 18 19 18 16 16 16 18 17 17 17 16 19 22 21 23
23 22 21 20 19 19 18 17 16 16 16 14 14 12 11 10 9 8 9 9 9 10 10 11 12 13 14 14 14 14 14 15 16 17 18 18 16 17 17 17 22 21 16 16 18 20 20
26 25 24 23 22 21 20 20 19 18 17 16 15 14 13 12 11 11 11 11 11 11 12 12 12 12 12 13 13 15 16 17 16 15 15 16 19 18 18 19 19 18 18 18 20 23 20
30 29 28 26 25 25 24 23 22 21 20 19 18 17 16 16 16 15 14 13 14 14 14 15 15 14 14 14 15 16 17 16 17 16 15 15 18 21 21 22 24 22 22 19 18 22 20
34 33 31 30 29 28 27 26 26 25 24 23 22 22 21 20 22 20 19 19 17 17 17 17 17 17 17 18 18 19 19 19 19 18 18 18 17 19 19 21 25 20 20 21 24 24 26
36 35 35 34 33 32 31 30 29 28 28 27 26 26 25 24 24 24 24 25 24 23 22 22 21 21 21 20 21 21 22 22 22 23 21 23 23 23 23 24 25 26 27 27 28 30 32
Wind_Direction
33 34 37 41 39 38 39 41 51 55 66 71 79 91 103 129 148 147 141 141 141 149 158 163 169 174 175 175 178 180 183 183 184 185 185 187 189 193 194 197 204 212 219 230 239 251 259
36 38 41 44 46 44 45 49 54 58 67 76 79 89 104 122 133 141 143 142 142 147 154 162 168 172 173 173 177 179 181 181 183 184 186 188 191 194 196 204 210 218 224 233 248 257 265
37 41 46 46 46 45 46 50 52 56 65 77 79 87 104 112 122 131 134 140 144 147 153 159 162 164 164 172 174 176 176 179 183 184 185 190 192 199 200 206 216 221 234 245 253 260 268
38 42 45 46 48 47 49 52 54 55 64 77 82 86 97 112 111 115 125 136 141 148 151 157 161 163 166 169 171 171 174 176 179 182 184 189 189 194 206 211 224 231 242 250 255 265 270
37 41 44 47 47 48 49 52 54 57 65 75 79 88 93 103 107 116 122 128 137 143 149 154 158 160 164 167 168 172 173 176 180 182 186 191 198 204 214 217 233 246 241 249 261 267 276
37 40 43 46 46 47 49 51 55 59 65 71 79 87 93 98 103 108 117 122 129 136 143 148 153 157 162 167 169 172 175 178 181 186 191 198 206 211 223 226 233 238 249 262 266 276 279
37 39 41 43 44 46 48 50 53 58 62 70 78 85 90 93 98 104 113 119 125 128 128 142 150 150 158 164 167 171 176 181 185 189 198 207 207 216 221 232 235 243 255 266 272 279 286
38 39 40 41 41 43 45 47 51 56 61 67 74 81 86 89 98 105 110 116 123 131 126 131 139 145 154 163 166 173 178 184 189 194 204 212 215 222 232 238 245 254 263 271 278 286 291
39 39 39 39 39 39 41 44 48 54 59 65 71 78 86 91 97 103 107 112 117 124 128 128 136 146 157 159 167 180 183 189 189 199 211 208 220 230 236 246 250 263 264 273 278 294 290
40 40 39 39 39 38 38 40 44 49 56 61 68 77 85 93 97 103 106 112 117 124 125 128 139 146 156 164 168 180 187 194 201 201 209 217 230 235 241 248 257 265 271 278 284 292 284
40 40 40 39 38 38 38 38 39 43 50 56 61 72 84 93 103 103 104 106 116 125 121 144 144 153 157 159 175 185 193 200 203 209 217 229 232 238 245 255 263 267 275 277 279 282 288
38 39 39 38 37 37 37 36 37 40 47 53 57 64 84 91 101 108 102 102 114 112 138 142 153 156 158 163 175 187 190 195 201 210 224 227 237 245 250 257 264 270 276 284 284 279 281
34 35 35 35 35 34 34 34 34 39 44 48 52 55 72 88 101 109 105 102 95 114 147 150 148 152 157 168 174 185 193 203 212 217 237 246 247 252 254 260 266 270 277 281 288 285 265
28 29 30 30 30 30 30 30 31 33 39 44 47 49 59 79 94 110 108 93 91 139 156 160 158 160 164 176 185 192 199 214 228 228 234 234 263 248 253 257 254 262 256 257 264 275 276
21 22 23 23 24 23 24 25 26 27 31 35 47 44 49 53 85 125 118 96 155 157 157 157 163 166 185 192 197 206 215 221 232 237 230 236 252 250 253 258 255 259 265 261 268 279 281
12 13 15 16 17 17 18 19 20 21 25 29 39 38 37 43 58 86 106 158 170 182 174 177 180 191 194 206 207 214 223 237 234 239 243 244 253 252 255 256 260 257 254 266 273 264 274
3 5 6 8 9 10 12 13 15 16 17 25 30 32 22 30 46 61 112 164 166 178 178 190 201 205 210 216 221 231 237 246 243 242 245 246 247 259 259 249 246 252 255 255 254 252 258
352 356 359 359 1 3 5 6 8 9 10 13 17 20 9 18 39 57 84 121 162 174 190 203 205 216 223 229 231 232 235 241 249 240 241 250 242 249 247 255 252 249 249 248 254 262 265
341 346 351 354 355 355 358 359 1 3 3 3 2 356 5 17 41 46 87 101 123 166 190 207 210 224 223 218 222 227 229 239 239 236 229 235 251 270 279 272 265 257 255 254 261 269 261
331 337 341 346 349 351 353 355 357 358 1 2 0 351 342 9 3 109 212 219 216 220 220 222 212 217 215 223 236 225 230 243 244 245 245 256 254 251 253 260 262 263 262 258 256 266 268
320 326 332 338 344 348 351 354 356 358 360 3 5 360 344 324 322 289 257 252 245 250 248 244 247 240 235 234 241 247 247 252 259 255 259 259 263 263 268 266 268 267 266 261 258 261 264
308 314 321 327 334 340 346 352 356 359 360 7 4 1 353 333 315 295 283 264 258 259 251 255 253 255 250 252 248 253 251 257 259 262 259 266 273 276 278 276 270 273 270 265 264 265 269
301 304 311 316 322 331 336 344 352 356 360 359 358 357 354 336 330 318 288 271 261 259 259 256 255 262 261 262 263 266 266 267 267 260 261 266 269 276 277 283 286 282 275 262 268 268 266
296 297 299 304 309 315 323 327 335 343 349 347 346 345 347 334 330 321 308 295 279 270 261 262 262 261 263 268 271 269 267 266 265 265 264 265 268 273 277 286 278 279 278 274 270 273 268
288 292 293 293 296 301 307 313 317 323 329 329 329 328 328 324 318 314 313 302 297 290 277 273 269 269 271 274 275 278 274 274 271 270 264 264 265 275 277 276 283 288 284 279 275 281 279
281 284 286 286 288 289 293 297 301 307 313 313 317 316 313 309 302 301 298 293 291 292 290 280 279 278 276 275 273 268 267 270 269 272 275 267 267 267 278 277 277 287 285 284 283 283 286
276 279 279 280 281 282 285 287 289 292 297 300 302 305 303 300 294 293 286 284 286 282 280 281 282 281 279 276 273 271 273 273 272 268 268 271 271 263 268 276 281 282 282 281 280 283 282
271 274 274 274 276 278 279 281 283 283 285 288 291 294 294 294 292 286 282 280 278 278 278 279 284 280 279 276 275 276 273 274 274 270 269 267 268 272 273 276 283 281 282 276 281 284 286
269 270 271 272 272 274 275 276 278 280 280 280 284 287 288 287 286 286 284 280 277 275 274 274 274 276 274 277 278 280 278 277 276 277 275 275 271 275 267 275 283 281 284 282 284 285 287